Regional Weather Roundup
Issued by NWS

Home | Current Version | Previous Version | Text Only | Print | Product List | Glossary Off
Versions: 1 2 3 4 5 6 7 8 9 10 11 12 13 14 15 16 17 18 19 20 21 22 23 24 25 26 27 28 29 30 31 32 33 34 35 36 37 38 39 40 41 42 43 44 45 46 47 48 49 50

000
ASUS43 KDTX 221701
RWRMI
MICHIGAN HOURLY REGIONAL WEATHER ROUNDUP
NATIONAL WEATHER SERVICE DETROIT/PONTIAC MI
100 PM EDT THU JUN 22 2017

NOTE: "FAIR" INDICATES FEW OR NO CLOUDS BELOW 12,000 FEET WITH NO
SIGNIFICANT WEATHER AND/OR OBSTRUCTION TO VISIBILITY.

MIZ047>049-052>055-059>063-066>070-074>076-081>083-221800-
SOUTHEAST LOWER MICHIGAN

CITY           SKY/WX    TMP DP  RH WIND       PRES   REMARKS
ADRIAN         CLOUDY    80  69  69 SW10G18   29.91F
ALMA           CLOUDY    80  68  66 SW8G18    29.80S
ANN ARBOR      MOSUNNY   80  70  71 S7        29.88F
BAD AXE        PTSUNNY   73  65  76 S10       29.82F
CARO           MOSUNNY   78  70  76 SE5       29.80F
DETROIT CITY   MOSUNNY   80  68  66 SW15G25   29.87F
DETROIT        CLOUDY    81  70  69 SW17      29.88F
FLINT          MOSUNNY   84  66  54 SW12G18   29.82F
GROSSE ILE     MOSUNNY   77  71  81 S8        29.88F
HILLSDALE      MOSUNNY   75  68  78 S7        29.91F
HOWELL         MOSUNNY   84  64  49 SW14      29.85F

CITY           SKY/WX    TMP DP  RH WIND       PRES   REMARKS
JACKSON        CLOUDY    79  66  64 SW13      29.89F
LAMBERTVILLE   CLOUDY    77  68  73 S10       29.91F
LANSING        MOSUNNY   86  65  49 SW15      29.83F
LAPEER         NOT AVBL
MASON          MOSUNNY   85  68  55 S8        29.86F
MONROE         CLOUDY    82  68  63 SW16      29.89F
MT. CLEMENS    PTSUNNY   84  67  57 S14       29.85F
PONTIAC        PTSUNNY   84  67  56 SW14      29.85F
PORT HOPE        N/A     70  63  78 S8        29.80F
PORT HURON     CLOUDY    79  64  61 S12       29.86S
TRI CITIES     PTSUNNY   77  69  76 VRB6      29.80F
MIDLAND        FAIR      73  65  74 S6        29.79S
TROY           MOSUNNY   82  64  53 SW9       29.89S
SAGINAW HB     PTSUNNY   82  64  54 W10       29.79F
$$
MIZ043>046-050>051-056>058-064>065-071>073-077>080-221800-
SOUTHWEST LOWER MICHIGAN

CITY           SKY/WX    TMP DP  RH WIND       PRES   REMARKS
BATTLE CREEK   CLOUDY    84  68  58 SW15      29.87F
BENTON HARBOR  SUNNY     86  64  47 S13       29.84F
BIG RAPIDS     CLOUDY    76  68  74 SW9G16    29.80R
COLDWATER      CLOUDY    79  67  66 S7        29.90F
FREMONT        FAIR      77  65  64 SW14G26   29.80R
HOLLAND        MOSUNNY   82  66  58 SW18G35   29.82F
GRAND RAPIDS   PTSUNNY   83  68  60 S18       29.80F
IONIA          FAIR      85  65  50 SW20      29.80F
KALAMAZOO      CLOUDY    84  65  52 S15       29.86F
LUDINGTON      CLOUDY    76  69  78 SW13G21   29.78S
MARSHALL       CLOUDY    82  67  60 SW9G17    29.88F
MOUNT PLEASANT CLOUDY    81  68  65 SW12      29.78F
MUSKEGON       CLOUDY    76  67  73 SW14G26   29.83R
SOUTH HAVEN    SUNNY     85  65  50 SW12G17   29.83F
$$
MIZ016>042-221800-
NORTHERN LOWER MICHIGAN

CITY           SKY/WX    TMP DP  RH WIND       PRES   REMARKS
ALPENA         CLOUDY    71  66  84 S9        29.75F
BEAVER ISLAND  PTSUNNY   70  63  78 SW13G20   29.70F
BELLAIRE       CLOUDY    73  66  76 S5        29.72F
CADILLAC       CLOUDY    75  68  77 SW12G17   29.79R
CHARLEVOIX     CLOUDY    73  67  81 SW8G16    29.74S
FRANKFORT      CLOUDY    71  64  77 S8G17     29.75S
GAYLORD        CLOUDY    72  65  78 SW7       29.76R
GRAYLING       CLOUDY    75  67  75 W12       29.77R
HARBOR SPRINGS CLOUDY    67  66  96 CALM      29.72R
HOUGHTON LAKE  MOSUNNY   76  67  73 SW9       29.78S
MANISTEE       CLOUDY    77  67  71 SW10      29.76R
OSCODA         CLOUDY    69  62  78 S10G16    29.77F
PELLSTON       CLOUDY    70  64  81 SW8       29.72F
ROGERS CITY    CLOUDY    69  64  85 SW8       29.74F
TRAVERSE CITY  CLOUDY    77  65  66 VRB6G20   29.72R
$$
MIZ007>008-015-221800-
EASTERN UPPER MICHIGAN

CITY           SKY/WX    TMP DP  RH WIND       PRES   REMARKS
KINROSS        CLOUDY    64  61  90 SE8       29.71F
MACKINAC ISLAN CLOUDY    64  64 100 S5        29.70F
NEWBERRY       CLOUDY    65  64  94 S9        29.68F
S. S. MARIE    CLOUDY    64  59  83 SE8       29.70F
MUNISING         N/A     73  63  70 VRB6      29.65S
$$
MIZ004>006-011>014-085-221800-
CENTRAL UPPER MICHIGAN

CITY           SKY/WX    TMP DP  RH WIND       PRES   REMARKS
MANISTIQUE     PTSUNNY   64  60  90 S8        29.69S
ESCANABA       CLOUDY    71  65  81 S9        29.67F
MENOMINEE      RAIN      70  68  93 VRB3      29.72R
SAWYER-GWINN   SUNNY     68  61  77 SW7       29.69R
$$
MIZ001>003-009>011-084-221800-
WESTERN UPPER MICHIGAN

CITY           SKY/WX    TMP DP  RH WIND       PRES   REMARKS
IRON MOUNTAIN  CLOUDY    75  62  64 W7        29.67S
HOUGHTON       MOSUNNY   66  56  70 W16G24    29.65R
COPPER HARBOR    N/A     61  54  77 N20       29.63R
IRONWOOD       CLOUDY    70  51  51 W10       29.70R
$$

ABBREVIATIONS USED IN REMARKS
   TC - TEMPERATURE IN CELSIUS
  WCI - WIND CHILL INDEX
   HX - HEAT INDEX
  VSB - VISIBILITY





USA.gov is the U.S. government's official web portal to all federal, state and local government web resources and services.